CST,Max TemperatureF,Mean TemperatureF,Min TemperatureF,Max Dew PointF,MeanDew PointF,Min DewpointF,Max Humidity, Mean Humidity, Min Humidity, Max Sea Level PressureIn, Mean Sea Level PressureIn, Min Sea Level PressureIn, Max VisibilityMiles, Mean VisibilityMiles, Min VisibilityMiles, Max Wind SpeedMPH, Mean Wind SpeedMPH, Max Gust SpeedMPH,PrecipitationIn, CloudCover, Events, WindDirDegrees
2012-11-1,81,77,73,72,70,69,89,80,66,30.04,29.98,29.95,9,6,2,12,3,,0.12,7,Rain,171
2012-11-2,82,77,72,72,71,70,89,81,65,30.04,29.98,29.94,9,6,3,16,10,,0.20,7,Rain,99
2012-11-3,86,79,72,73,70,68,89,68,48,30.03,29.98,29.92,10,7,6,14,6,,0.00,3,,60
2012-11-4,84,78,73,73,73,72,94,75,60,29.99,29.94,29.89,9,7,6,7,1,,0.00,5,,130
2012-11-5,82,78,75,75,74,72,94,85,75,29.98,29.93,29.86,10,6,4,8,5,,0.12,7,Rain,47
2012-11-6,81,78,74,74,73,70,89,84,74,30.01,29.96,29.92,10,5,1,16,8,,1.18,7,Rain,266
2012-11-7,79,76,73,72,70,68,89,81,70,30.04,29.99,29.95,6,5,1,13,5,,0.47,7,Rain,282
2012-11-8,78,73,68,72,70,66,94,84,73,30.07,30.02,29.98,9,4,1,8,4,,0.08,7,Rain,179
2012-11-9,78,74,69,72,70,68,88,79,68,30.08,30.02,29.95,11,6,4,8,4,,0.02,6,Rain,278
2012-11-10,75,72,68,72,70,69,94,87,81,30.06,30.01,29.95,10,4,1,20,7,,0.35,8,Rain,49
2012-11-11,83,76,68,74,72,69,94,77,60,30.01,29.96,29.92,10,7,4,13,4,,0.16,5,Rain,227
2012-11-12,86,79,72,75,74,72,89,74,59,30.01,29.96,29.92,9,6,4,12,9,,0.02,3,Rain,83
2012-11-13,85,78,70,72,69,66,89,71,53,30.05,29.99,29.95,9,6,1,16,7,,0.04,4,Rain,36
2012-11-14,85,76,68,72,69,66,89,70,49,30.06,30.01,29.95,9,6,4,9,4,,0.00,4,,334
2012-11-15,84,77,70,73,71,70,89,78,57,30.04,30.00,29.95,6,4,1,12,5,,0.51,5,Rain,305
2012-11-16,82,76,71,73,71,68,89,80,66,30.04,30.00,29.95,6,5,2,8,5,,0.16,5,Rain,304
2012-11-17,82,76,69,72,69,64,83,75,63,30.08,30.04,30.01,10,6,2,10,5,,0.12,4,Rain,290
2012-11-18,81,74,66,68,65,62,78,62,52,30.09,30.05,30.01,10,6,3,14,9,,0.01,5,Rain,297
2012-11-19,80,75,70,68,66,61,83,68,48,30.09,30.03,29.98,7,5,2,12,9,,0.08,7,Rain,305
2012-11-20,79,74,69,70,70,68,94,79,67,30.05,30.00,29.95,6,3,1,10,6,,1.06,6,Rain,311
2012-11-21,82,76,69,73,71,70,94,87,79,30.05,30.01,29.98,6,4,1,6,3,,1.06,7,Rain,308
2012-11-22,83,76,68,72,67,63,88,66,51,30.06,30.02,29.98,9,6,3,14,7,,0.02,4,Rain,29
2012-11-23,82,75,68,63,60,57,69,52,33,30.10,30.06,30.01,14,8,6,12,8,,0.00,3,,44
2012-11-24,82,72,63,64,63,59,83,61,36,30.12,30.06,30.01,15,8,6,9,5,,0.00,4,,13
2012-11-25,82,74,66,64,62,59,83,58,36,30.09,30.03,29.98,14,8,6,10,7,,0.00,2,,24
2012-11-26,81,72,64,70,69,64,88,77,69,30.08,30.02,29.98,11,7,6,7,3,,0.00,7,,360
2012-11-27,81,76,71,74,73,72,94,83,74,30.06,30.02,29.98,7,6,3,6,3,,0.00,7,,316
2012-11-28,78,75,72,73,72,69,89,85,80,30.14,30.07,30.04,6,6,2,18,7,,0.12,8,Rain,38
2012-11-29,80,74,68,73,71,68,94,83,72,30.09,30.04,29.98,10,6,2,20,9,,0.02,7,Rain,229
2012-11-30,79,73,67,72,71,68,94,86,81,30.07,30.02,29.98,7,5,2,7,3,,0.59,6,Rain,267